Change the Weather History Date:

Sunday, December 15, 2013

  Actual Average Record
Temperature  
Mean Temperature 44 °F -  
Max Temperature 59 °F 56 °F 70 °F (2012)
Min Temperature 29 °F 32 °F 29 °F (2013)
Degree Days  
Heating Degree Days 21    
Moisture  
Dew Point 31 °F    
Average Humidity 69    
Maximum Humidity 89    
Minimum Humidity 37    
Precipitation  
Precipitation 0.00 in - - ()
Sea Level Pressure  
Sea Level Pressure 30.27 in    
Wind  
Wind Speed 6 mph (West)    
Max Wind Speed 9 mph    
Max Gust Speed -    
Visibility 8 miles    
Events      
Averages and records for this station are not official NWS values.
T = Trace of Precipitation, MM = Missing Value Source: NWS Daily Summary

Daily Weather History Graph

Daily Weather History Graph

Search for Another Location

Airport or City:

Trip Planner

Search our weather history database for the weather conditions in past years. The results will help you decide how hot, cold, wet, or windy it might be!

Date:

Astronomy

Dec. 15, 2013 Rise Set
Actual Time 7:20 AM CST 5:14 PM CST
Civil Twilight 6:52 AM CST 5:42 PM CST
Nautical Twilight 6:21 AM CST 6:13 PM CST
Astronomical Twilight 5:50 AM CST 6:44 PM CST
Moon 4:16 PM CST (12/15) 5:40 AM CST (12/15)
Length of Visible Light 10h 49m
Length of Day
9h 54m
Waxing Gibbous, 98% of the Moon is Illuminated
Dec 15
Waxing Gibbous
Dec 17
Full
Dec 25
Last Quarter
Jan 1
New
Jan 7
First Quarter

Hourly Weather History & Observations

Time (CST) Temp. Windchill Dew Point Humidity Pressure Visibility Wind Dir Wind Speed Gust Speed Precip Events Conditions
12:15 AM 33.1 °F 27.7 °F 29.7 °F 87% 30.28 in 10.0 mi WNW 5.8 mph - N/A   Clear
12:55 AM 32.7 °F 26.4 °F 29.3 °F 87% 30.27 in 10.0 mi WNW 6.9 mph - N/A   Clear
1:15 AM 32.4 °F 26.9 °F 29.1 °F 88% 30.28 in 10.0 mi WNW 5.8 mph - N/A   Clear
1:35 AM 32.0 °F 26.4 °F 28.9 °F 88% 30.27 in 10.0 mi WNW 5.8 mph - N/A   Clear
1:55 AM 32.0 °F 26.4 °F 28.4 °F 87% 30.28 in 7.0 mi WNW 5.8 mph - N/A   Clear
2:15 AM 31.6 °F 26.0 °F 28.4 °F 88% 30.27 in 7.0 mi WNW 5.8 mph - N/A   Clear
2:35 AM 32.0 °F 25.6 °F 28.6 °F 87% 30.27 in 7.0 mi WNW 6.9 mph - N/A   Clear
2:55 AM 32.0 °F 25.6 °F 28.4 °F 87% 30.28 in 7.0 mi NW 6.9 mph - N/A   Clear
3:15 AM 32.0 °F 25.6 °F 28.4 °F 87% 30.27 in 7.0 mi WNW 6.9 mph - N/A   Clear
3:35 AM 32.0 °F 25.6 °F 28.4 °F 87% 30.28 in 7.0 mi WNW 6.9 mph - N/A   Clear
3:55 AM 32.0 °F 25.6 °F 28.4 °F 87% 30.27 in 7.0 mi WNW 6.9 mph - N/A   Clear
4:15 AM 30.9 °F 26.2 °F 27.7 °F 88% 30.28 in 7.0 mi WNW 4.6 mph - N/A   Clear
4:35 AM 30.7 °F 24.1 °F 27.5 °F 88% 30.28 in 7.0 mi WNW 6.9 mph - N/A   Clear
4:55 AM 30.7 °F 23.3 °F 27.5 °F 88% 30.28 in 7.0 mi WNW 8.1 mph - N/A   Clear
5:15 AM 30.9 °F 24.3 °F 27.5 °F 87% 30.28 in 7.0 mi WNW 6.9 mph - N/A   Clear
5:35 AM 30.9 °F 25.2 °F 27.5 °F 87% 30.28 in 7.0 mi WNW 5.8 mph - N/A   Clear
5:55 AM 30.7 °F 26.0 °F 27.3 °F 87% 30.28 in 7.0 mi WNW 4.6 mph - N/A   Clear
6:15 AM 30.2 °F 24.3 °F 27.1 °F 88% 30.29 in 7.0 mi WNW 5.8 mph - N/A   Clear
6:35 AM 30.2 °F 24.3 °F 27.0 °F 88% 30.29 in 7.0 mi WNW 5.8 mph - N/A   Clear
6:55 AM 30.2 °F 25.4 °F 27.1 °F 88% 30.29 in 7.0 mi West 4.6 mph - N/A   Clear
7:15 AM 30.2 °F 26.7 °F 27.3 °F 89% 30.30 in 5.0 mi West 3.5 mph - N/A   Clear
7:35 AM 29.8 °F 24.9 °F 27.0 °F 89% 30.31 in 5.0 mi West 4.6 mph - N/A   Clear
7:55 AM 30.9 °F 25.2 °F 27.5 °F 87% 30.31 in 5.0 mi West 5.8 mph - N/A   Clear
8:15 AM 32.0 °F 27.5 °F 28.4 °F 87% 30.31 in 5.0 mi WNW 4.6 mph - N/A   Clear
8:35 AM 33.8 °F 30.8 °F 30.2 °F 87% 30.32 in 5.0 mi West 3.5 mph - N/A   Clear
8:55 AM 35.6 °F - 30.4 °F 81% 30.31 in 7.0 mi Calm Calm - N/A   Clear
9:15 AM 37.6 °F - 30.9 °F 77% 30.31 in 7.0 mi Calm Calm - N/A   Clear
9:35 AM 39.9 °F - 31.6 °F 72% 30.32 in 7.0 mi Calm Calm - N/A   Clear
9:55 AM 42.8 °F - 32.2 °F 66% 30.32 in 10.0 mi Calm Calm - N/A   Clear
10:15 AM 44.6 °F - 32.7 °F 63% 30.32 in 10.0 mi Calm Calm - N/A   Clear
10:35 AM 46.0 °F 44.8 °F 32.4 °F 59% 30.32 in 10.0 mi West 3.5 mph - N/A   Clear
12:15 PM 54.0 °F - 32.4 °F 44% 30.28 in 10.0 mi WNW 4.6 mph - N/A   Clear
12:35 PM 54.7 °F - 33.3 °F 44% 30.27 in 10.0 mi WNW 4.6 mph - N/A   Clear
12:55 PM 56.3 °F - 34.3 °F 44% 30.27 in 10.0 mi SW 4.6 mph - N/A   Clear
1:15 PM 56.5 °F - 34.9 °F 44% 30.26 in 10.0 mi West 6.9 mph - N/A   Clear
1:35 PM 56.8 °F - 35.1 °F 44% 30.25 in 10.0 mi WSW 5.8 mph - N/A   Clear
1:55 PM 58.1 °F - 35.4 °F 43% 30.24 in 10.0 mi WSW 4.6 mph - N/A   Clear
2:15 PM 58.3 °F - 34.9 °F 41% 30.24 in 10.0 mi West 5.8 mph - N/A   Clear
2:35 PM 59.2 °F - 33.8 °F 38% 30.24 in 10.0 mi West 6.9 mph - N/A   Clear
2:55 PM 59.5 °F - 34.0 °F 38% 30.23 in 10.0 mi West 6.9 mph - N/A   Clear
3:15 PM 59.7 °F - 33.6 °F 37% 30.23 in 10.0 mi WSW 5.8 mph - N/A   Clear
3:35 PM 59.9 °F - 33.8 °F 38% 30.21 in 10.0 mi WSW 5.8 mph - N/A   Clear
3:55 PM 59.4 °F - 33.8 °F 38% 30.21 in 10.0 mi SW 9.2 mph - N/A   Clear
4:15 PM 59.0 °F - 34.2 °F 39% 30.22 in 10.0 mi WSW 6.9 mph - N/A   Clear
4:35 PM 58.3 °F - 34.7 °F 41% 30.21 in 10.0 mi SW 5.8 mph - N/A   Clear
4:55 PM 57.2 °F - 34.2 °F 42% 30.21 in 10.0 mi South 4.6 mph - N/A   Clear
5:15 PM 55.6 °F - 34.9 °F 46% 30.21 in 10.0 mi South 3.5 mph - N/A   Clear
5:35 PM 54.7 °F - 35.4 °F 48% 30.22 in 10.0 mi SSW 3.5 mph - N/A   Clear
10:15 PM 47.3 °F - 36.5 °F 66% 30.23 in 10.0 mi SSW 6.9 mph - N/A   Clear
10:35 PM 46.6 °F - 36.5 °F 68% 30.23 in 10.0 mi SSW 6.9 mph - N/A   Clear
10:55 PM 46.0 °F 42.5 °F 36.1 °F 68% 30.23 in 10.0 mi SSW 6.9 mph - N/A   Clear
11:15 PM 45.5 °F 41.3 °F 36.1 °F 70% 30.23 in 10.0 mi SSW 8.1 mph - N/A   Clear
11:35 PM 45.5 °F 41.8 °F 36.1 °F 70% 30.22 in 10.0 mi SSW 6.9 mph - N/A   Clear
11:55 PM 44.8 °F 41.0 °F 36.1 °F 72% 30.22 in 10.0 mi SSW 6.9 mph - N/A   Clear